Zurück zum Katalog

EUTE 1-F4

ECS 4

AktivKommunikationGEO
NORAD 18351·PAYLOAD·🇪🇺 EU

Gestartet Sep 16, 1987 von Guiana Space Centre

Loading…

TLE

AktuellSource: Space-Track

Epoche: Sep 14, 2026, 10:43 UTC

1 18351U 87078B   26257.44720279 -.00000262  00000-0  00000-0 0  9996
2 18351  13.7666 341.4935 0008072  41.0869 294.2302  0.98691545127631

Verfolge EUTE 1-F4 in Echtzeit mit AllMySat

Download on the App Store